Вернуться в каталог

FENGYUN 1C DEB

АктивенSSO
NORAD 32096·DEBRIS·🇨🇳 China

Запущен May 10, 1999 с Taiyuan Satellite Launch Center

Loading…

Ближайшие Пролёты (ближайшие 24 часа)

TLE

УстаревающийSource: Space-Track

Эпоха: Sep 9, 2026, 00:47 UTC

1 32096U 99025CQN 26252.03296771  .00000452  00000-0  36584-3 0  9997
2 32096  99.0514 279.3351 0137085 127.2896 234.0853 13.90841424966180

Отслеживайте FENGYUN 1C DEB в реальном времени с AllMySat

Download on the App Store